Location: Catstown
(52.4386°N, 7.2633°W)
Time: 11:46:44
(UTC+00:00)

Cosmos 1833 Rocket - Pass Details

Date: 18 January 2021
Orbit: 833 x 839 km, 71.0° (Epoch: 24 February)

Event Time Altitude Azimuth Distance (km) Brightness Sun altitude
Rises 21:46:16 0° 323° (NW) 3,393 6.5 -43.7°
Reaches altitude 10° 21:48:59 10° 313° (NW) 2,454 5.7 -44.1°
Enters shadow 21:49:58 15° 307° (NW) 2,145 5.3 -44.2°
